Pinopolis, SC

9:40 PM EDT on July 23, 2016 (GMT -0400)
Moncks Corner

Weather History for KMKS - August, 2012

Change the Weather History Date:

Friday, August 3, 2012

  Actual Average (KCHS) Record (KCHS)
Temperature  
Mean Temperature 79 °F 82 °F  
Max Temperature 89 °F 91 °F 97 °F (2006)
Min Temperature 69 °F 73 °F 60 °F (1965)
Degree Days  
Heating Degree Days 0 0  
Month to date heating degree days 0  
Since 1 June heating degree days 1  
Since 1 July heating degree days 0  
Cooling Degree Days 14 17  
Month to date cooling degree days 51  
Year to date cooling degree days 1363  
Since 1 June cooling degree days 1001  
Growing Degree Days 29 (Base 50)    
Moisture  
Dew Point 72 °F    
Average Humidity 80    
Maximum Humidity 100    
Minimum Humidity 52    
Precipitation  
Precipitation 0.00 in 0.22 in 4.60 in (1962)
Month to date precipitation 0.64  
Year to date precipitation 29.13  
Sea Level Pressure  
Sea Level Pressure 30.02 in    
Wind  
Wind Speed 2 mph (SSE)    
Max Wind Speed 12 mph    
Max Gust Speed -    
Visibility 8 miles    
Events Thunderstorm    
T = Trace of Precipitation, MM = Missing Value Source: NWS Daily Summary

Daily Weather History Graph

Daily Weather History Graph

Search for Another Location

Airport or City:

Trip Planner

Search our weather history database for the weather conditions in past years. The results will help you decide how hot, cold, wet, or windy it might be!

Date:

Astronomy

Aug. 03, 2012 Rise Set
Actual Time 6:34 AM EDT 8:17 PM EDT
Civil Twilight 6:08 AM EDT 8:44 PM EDT
Nautical Twilight 5:35 AM EDT 9:16 PM EDT
Astronomical Twilight 5:01 AM EDT 9:50 PM EDT
Moon 9:05 PM EDT (8/3) 8:07 AM EDT (8/3)
Length of Visible Light 14h 36m
Length of Day
13h 42m
Full, 97% of the Moon is Illuminated
Aug 3
Full
Aug 9
Last Quarter
Aug 17
New
Aug 24
First Quarter
Aug 31
Full

Hourly Weather History & Observations

Time (EDT) Temp. Heat Index Dew Point Humidity Pressure Visibility Wind Dir Wind Speed Gust Speed Precip Events Conditions
12:35 AM 71.6 °F - 69.8 °F 94% 29.98 in 7.0 mi Calm Calm - N/A   Clear
12:55 AM 71.6 °F - 69.8 °F 94% 29.99 in 5.0 mi Calm Calm - N/A   Clear
1:15 AM 71.6 °F - 69.8 °F 94% 29.99 in 7.0 mi Calm Calm - N/A   Clear
1:55 AM 71.6 °F - 69.8 °F 94% 29.98 in 5.0 mi Calm Calm - N/A   Clear
2:15 AM 71.6 °F - 69.8 °F 94% 29.97 in 5.0 mi Calm Calm - N/A   Clear
2:35 AM 69.8 °F - 69.8 °F 100% 29.97 in 3.0 mi Calm Calm - N/A   Clear
3:15 AM 69.8 °F - 69.8 °F 100% 29.98 in 5.0 mi Calm Calm - N/A   Clear
3:35 AM 69.8 °F - 69.8 °F 100% 29.98 in 5.0 mi Calm Calm - N/A   Clear
3:55 AM 69.8 °F - 68.0 °F 94% 29.98 in 3.0 mi Calm Calm - N/A   Clear
4:15 AM 69.8 °F - 69.8 °F 100% 29.98 in 4.0 mi Calm Calm - N/A   Clear
4:35 AM 69.8 °F - 68.0 °F 94% 29.98 in 5.0 mi Calm Calm - N/A   Clear
4:55 AM 69.8 °F - 68.0 °F 94% 29.98 in 5.0 mi Calm Calm - N/A   Clear
5:55 AM 69.8 °F - 68.0 °F 94% 29.98 in 5.0 mi Calm Calm - N/A   Clear
6:35 AM 69.8 °F - 68.0 °F 94% 29.98 in 3.0 mi Calm Calm - N/A   Clear
6:55 AM 69.8 °F - 68.0 °F 94% 29.98 in 2.5 mi Calm Calm - N/A   Clear
7:15 AM 69.8 °F - 69.8 °F 100% 29.99 in 4.0 mi Calm Calm - N/A   Clear
7:35 AM 71.6 °F - 71.6 °F 100% 30.00 in 5.0 mi Calm Calm - N/A   Clear
7:55 AM 73.4 °F - 73.4 °F 100% 30.01 in 5.0 mi Calm Calm - N/A   Clear
8:15 AM 77.0 °F - 73.4 °F 89% 30.02 in 7.0 mi Calm Calm - N/A   Clear
8:35 AM 78.8 °F - 75.2 °F 89% 30.02 in 10.0 mi Calm Calm - N/A   Clear
8:55 AM 80.6 °F 87.1 °F 77.0 °F 89% 30.02 in 7.0 mi South 6.9 mph - N/A   Clear
9:15 AM 82.4 °F 90.9 °F 77.0 °F 84% 30.02 in 7.0 mi South 5.8 mph - N/A   Clear
9:55 AM 84.2 °F 94.1 °F 77.0 °F 79% 30.03 in 10.0 mi SSW 8.1 mph - N/A   Scattered Clouds
11:15 AM 87.8 °F 97.6 °F 75.2 °F 66% 30.05 in 10.0 mi South 8.1 mph - N/A   Mostly Cloudy
11:35 AM 87.8 °F 97.6 °F 75.2 °F 66% 30.04 in 10.0 mi South 9.2 mph - N/A   Scattered Clouds
11:55 AM 89.6 °F 99.8 °F 75.2 °F 62% 30.05 in 7.0 mi SSW 11.5 mph - N/A   Scattered Clouds
12:15 PM 82.4 °F 85.4 °F 68.0 °F 62% 30.05 in 10.0 mi WSW 6.9 mph - N/A   Mostly Cloudy
1:15 PM 84.2 °F 88.4 °F 69.8 °F 62% 30.03 in 10.0 mi South 3.5 mph - N/A   Clear
1:35 PM 86.0 °F 90.4 °F 69.8 °F 58% 30.03 in 10.0 mi Calm Calm - N/A   Clear
2:15 PM 84.2 °F 89.6 °F 71.6 °F 66% 30.05 in 7.0 mi ENE 10.4 mph - N/A   Clear
2:35 PM 82.4 °F 87.2 °F 71.6 °F 70% 30.03 in 10.0 mi East 6.9 mph - N/A   Clear
2:55 PM 86.0 °F 91.8 °F 71.6 °F 62% 30.02 in 10.0 mi East 4.6 mph - N/A Thunderstorm Thunderstorm
3:35 PM 87.8 °F 97.6 °F 75.2 °F 66% 29.99 in 10.0 mi SE 8.1 mph - N/A   Clear
4:15 PM 87.8 °F 95.6 °F 73.4 °F 62% 30.00 in 10.0 mi SSE 6.9 mph - N/A   Clear
4:35 PM 87.8 °F 93.8 °F 71.6 °F 58% 30.00 in 10.0 mi SSE 5.8 mph - N/A   Clear
4:55 PM 87.8 °F 93.8 °F 71.6 °F 58% 30.00 in 10.0 mi SSE 4.6 mph - N/A   Clear
5:15 PM 87.8 °F 92.6 °F 69.8 °F 55% 29.99 in 10.0 mi SE 6.9 mph - N/A   Clear
5:35 PM 87.8 °F 92.6 °F 69.8 °F 55% 29.99 in 10.0 mi SSE 4.6 mph - N/A   Clear
5:55 PM 87.8 °F 91.4 °F 68.0 °F 52% 30.00 in 10.0 mi SSE 5.8 mph - N/A   Clear
6:15 PM 86.0 °F 91.8 °F 71.6 °F 62% 30.00 in 10.0 mi SSE 4.6 mph - N/A   Clear
6:35 PM 86.0 °F 93.4 °F 73.4 °F 66% 30.01 in 10.0 mi SSE 5.8 mph - N/A   Clear
6:55 PM 86.0 °F 95.1 °F 75.2 °F 70% 30.01 in 10.0 mi SSE 5.8 mph - N/A   Clear
7:15 PM 86.0 °F 95.1 °F 75.2 °F 70% 30.02 in 10.0 mi SE 8.1 mph - N/A   Scattered Clouds
7:35 PM 84.2 °F 92.3 °F 75.2 °F 74% 30.02 in 10.0 mi SSE 9.2 mph - N/A   Scattered Clouds
7:55 PM 82.4 °F 89.5 °F 75.2 °F 79% 30.03 in 10.0 mi South 6.9 mph - N/A   Clear
8:15 PM 82.4 °F 89.5 °F 75.2 °F 79% 30.04 in 10.0 mi SSE 4.6 mph - N/A   Clear
8:35 PM 82.4 °F 89.5 °F 75.2 °F 79% 30.05 in 10.0 mi South 6.9 mph - N/A   Clear
8:55 PM 80.6 °F 86.2 °F 75.2 °F 84% 30.05 in 10.0 mi SSE 6.9 mph - N/A   Clear
9:15 PM 80.6 °F 86.2 °F 75.2 °F 84% 30.07 in 10.0 mi South 3.5 mph - N/A   Clear
9:35 PM 80.6 °F 85.4 °F 73.4 °F 79% 30.07 in 10.0 mi South 4.6 mph - N/A   Clear
9:55 PM 80.6 °F 85.4 °F 73.4 °F 79% 30.07 in 10.0 mi SSE 3.5 mph - N/A   Clear
10:15 PM 78.8 °F - 73.4 °F 83% 30.08 in 10.0 mi SSE 3.5 mph - N/A   Clear
10:35 PM 78.8 °F - 73.4 °F 83% 30.07 in 10.0 mi South 3.5 mph - N/A   Clear
10:55 PM 78.8 °F - 73.4 °F 83% 30.07 in 10.0 mi Calm Calm - N/A   Clear
11:15 PM 78.8 °F - 73.4 °F 83% 30.07 in 10.0 mi Calm Calm - N/A   Clear
11:35 PM 77.0 °F - 73.4 °F 89% 30.07 in 10.0 mi Calm Calm - N/A   Clear